SIRION PATHFINDER-2 (43759 NORAD) Tracking and Keplerian Element Data

This shows tracking and keplerian element data for the satellite.

Feedback or suggestion? Click here.




ElementValue
Catalog43759
NameSIRION PATHFINDER-2
Epoch Orbit2112
Epoch Day114.17036857
Epoch Year2019
RAAN186.8257
Inclination97.7483
Eccentricity0.0015282
Argument of Perigee141.2708
Mean Anonmoly218.9611
Mean Motion14.95103104
Decay Rate-5.6E-07
L11 43759U 18099B 19114.17036857 -.00000056 00000-0 14266-6 0 9995
L22 43759 97.7483 186.8257 0015282 141.2708 218.9611 14.95103104 21128

Live tracking and technical data element details for SIRION PATHFINDER-2 (NORAD 43759). SIRION PATHFINDER-2 can be tracked NOW for your location showing map with azimuth and elevation plus other details from your city location.

Track the satellite on the map from your city or location and see movement details for azimuth, elevation, latitude, longitude, range, height, and movement on the map or in text.







IsCatalogInMostPopularTable: catalog: 43759, numindb: 59
Update: records affected: 1



GetName: 43759 SIRION PATHFINDER-2

Hit Count: updated at: Wed, 24 Apr 2019 18:03:31 GMT